Location: Capvern
(43.1036°N, 0.3160°E)
Time: 22:48:28
(UTC+00:00)

H-2A R/B - Pass Details

Date: 16 October 2021
Orbit: 577 x 654 km, 98.5° (Epoch: 03 December)

Event Time Altitude Azimuth Distance (km) Brightness Sun altitude
Rises 18:14:35 0° 24° (NNE) 2,802 5.2 -11.8°
Reaches altitude 10° 18:16:58 10° 36° (NE) 1,900 4.2 -12.2°
Maximum altitude 18:20:34 29° 97° (E) 1,073 2.7 -12.9°
Drops below altitude 10° 18:24:11 10° 159° (SSE) 1,905 4.4 -13.5°
Sets 18:26:34 0° 170° (S) 2,810 5.3 -14.0°
